Weather History for Daytona Beach, FL

Change the Weather History Date:

Friday, October 25, 2013

  Actual Average Record
Temperature  
Mean Temperature 67 °F 72 °F  
Max Temperature 78 °F 80 °F 89 °F (2001)
Min Temperature 56 °F 63 °F 41 °F (1937)
Degree Days  
Heating Degree Days 0 1  
Month to date heating degree days 0 1  
Since 1 July heating degree days 0 1  
Cooling Degree Days 2 7  
Month to date cooling degree days 270 247  
Year to date cooling degree days 2928 2757  
Growing Degree Days 16 (Base 50)    
Moisture  
Dew Point 53 °F    
Average Humidity 62    
Maximum Humidity 86    
Minimum Humidity 37    
Precipitation  
Precipitation 0.00 in 0.11 in 1.22 in (1924)
Month to date precipitation 1.99 3.64  
Year to date precipitation 42.98 43.73  
Sea Level Pressure  
Sea Level Pressure 30.21 in    
Wind  
Wind Speed 7 mph (North)    
Max Wind Speed 16 mph    
Max Gust Speed 21 mph    
Visibility 10 miles    
Events      
T = Trace of Precipitation, MM = Missing Value Source: NWS Daily Summary

Daily Weather History Graph

Daily Weather History Graph

Search for Another Location

Airport:

Trip Planner

Search our weather history database for the weather conditions in past years. The results will help you decide how hot, cold, wet, or windy it might be!

Date:

Astronomy

Oct. 25, 2013 Rise Set
Actual Time 7:32 AM EDT 6:43 PM EDT
Civil Twilight 7:07 AM EDT 7:08 PM EDT
Nautical Twilight 6:40 AM EDT 7:35 PM EDT
Astronomical Twilight 6:12 AM EDT 8:03 PM EDT
Moon No Moon Rise 1:04 PM EDT (10/25)
Length of Visible Light 12h 00m
Length of Day
11h 11m
Waning Gibbous, 62% of the Moon is Illuminated
Oct 25
Waning Gibbous
Oct 26
Last Quarter
Nov 3
New
Nov 10
First Quarter
Nov 17
Full

Hourly Weather History & Observations

Time (EDT) Temp. Dew Point Humidity Pressure Visibility Wind Dir Wind Speed Gust Speed Precip Events Conditions
12:53 AM 60.1 °F 55.0 °F 83% 30.18 in 10.0 mi Calm Calm - N/A   Scattered Clouds
1:53 AM 60.1 °F 54.0 °F 80% 30.18 in 10.0 mi Calm Calm - N/A   Partly Cloudy
2:53 AM 59.0 °F 54.0 °F 83% 30.18 in 10.0 mi Calm Calm - N/A   Partly Cloudy
3:53 AM 57.9 °F 53.1 °F 84% 30.18 in 10.0 mi Calm Calm - N/A   Partly Cloudy
4:53 AM 57.9 °F 53.1 °F 84% 30.18 in 10.0 mi Calm Calm - N/A   Clear
5:53 AM 57.9 °F 53.1 °F 84% 30.19 in 10.0 mi Calm Calm - N/A   Clear
6:53 AM 57.0 °F 53.1 °F 87% 30.21 in 10.0 mi WNW 3.5 mph - N/A   Partly Cloudy
7:53 AM 55.9 °F 52.0 °F 87% 30.22 in 10.0 mi Calm Calm - N/A   Clear
8:53 AM 62.1 °F 53.1 °F 72% 30.25 in 10.0 mi NW 5.8 mph - N/A   Partly Cloudy
9:53 AM 66.9 °F 52.0 °F 59% 30.26 in 10.0 mi NW 5.8 mph - N/A   Partly Cloudy
10:53 AM 71.1 °F 50.0 °F 47% 30.25 in 10.0 mi NW 8.1 mph - N/A   Clear
11:53 AM 73.9 °F 50.0 °F 43% 30.25 in 10.0 mi NNW 10.4 mph - N/A   Clear
12:53 PM 75.9 °F 48.9 °F 38% 30.23 in 10.0 mi North 10.4 mph - N/A   Partly Cloudy
1:53 PM 78.1 °F 50.0 °F 37% 30.21 in 10.0 mi NNW 11.5 mph - N/A   Partly Cloudy
2:53 PM 77.0 °F 54.0 °F 45% 30.19 in 10.0 mi NE 8.1 mph - N/A   Partly Cloudy
3:53 PM 77.0 °F 55.9 °F 48% 30.19 in 10.0 mi NNE 10.4 mph - N/A   Partly Cloudy
4:53 PM 75.0 °F 55.9 °F 51% 30.19 in 10.0 mi NE 13.8 mph - N/A   Partly Cloudy
5:53 PM 72.0 °F 55.9 °F 57% 30.19 in 10.0 mi NNE 11.5 mph - N/A   Partly Cloudy
6:53 PM 69.1 °F 55.9 °F 63% 30.20 in 10.0 mi North 11.5 mph - N/A   Scattered Clouds
7:53 PM 68.0 °F 55.0 °F 63% 30.22 in 10.0 mi NNE 10.4 mph - N/A   Clear
8:53 PM 68.0 °F 54.0 °F 61% 30.22 in 10.0 mi NNE 12.7 mph - N/A   Clear
9:53 PM 68.0 °F 53.1 °F 59% 30.24 in 10.0 mi NNE 9.2 mph - N/A   Clear
10:53 PM 66.9 °F 53.1 °F 61% 30.25 in 10.0 mi NNE 10.4 mph - N/A   Partly Cloudy
11:53 PM 66.0 °F 52.0 °F 60% 30.25 in 10.0 mi NNE 9.2 mph - N/A   Partly Cloudy